M I D A S
Marine Information and Data Acquisition System
Tripno 2268 of the Zeeleeuw from 2012-02-17 07:27:53 to 2012-02-17 15:06:24
Back to CruiseResearch ActivitiesStationsMapUnderway DataData graphs

EquipmentUnitsComments
TimeDGPSUTC
LatitudeDGPSDM.mWGS84
LongitudeDGPSDM.mWGS84
SpeedMeteo Stationm/sRelative wind speed
DirectionMeteo StationdegRelative wind direction
TemperatureMeteo Stationdeg CelciusAir temperature
PressureMeteo StationPaAtmospheric pressure
HumidityMeteo Station%Relative humidity
Missing or incorrect values are displayed as -999
Metereological data collected by the RV Zeeleeuw from 2012-02-17 07:02:22 to 2012-02-17 16:13:58
                                                                                    Next 1000 lines
Time Latitude Longitude Speed Direction Temperature Pressure Humidity
2012-02-17 07:02:32 51°13.636 2°56.018 4.3 37 5.4 102280 45
2012-02-17 07:02:38 51°13.635 2°56.018 4.2 28 5.4 102280 45
2012-02-17 07:02:42 51°13.635 2°56.018 4.8 34 5.4 102290 45
2012-02-17 07:02:47 51°13.636 2°56.018 3.6 36 5.4 102290 45
2012-02-17 07:02:52 51°13.636 2°56.018 2.4 20 5.4 102290 44
2012-02-17 07:02:57 51°13.636 2°56.018 3.5 29 5.4 102290 44
2012-02-17 07:03:02 51°13.635 2°56.018 3.8 45 5.4 102280 44
2012-02-17 07:03:06 51°13.636 2°56.018 4.9 27 5.4 102280 44
2012-02-17 07:03:12 51°13.636 2°56.018 5.4 25 5.4 102280 47
2012-02-17 07:03:18 51°13.636 2°56.018 6.3 34 5.4 102280 47
2012-02-17 07:03:23 51°13.636 2°56.018 4.4 40 5.4 102290 47
2012-02-17 07:03:27 51°13.636 2°56.019 5 42 5.4 102290 47
2012-02-17 07:03:33 51°13.636 2°56.019 3.8 38 5.4 102280 45
2012-02-17 07:03:38 51°13.636 2°56.019 4.5 31 5.4 102280 45
2012-02-17 07:03:43 51°13.636 2°56.019 5.1 37 5.4 102280 44
2012-02-17 07:03:48 51°13.636 2°56.019 4.7 45 5.4 102280 44
2012-02-17 07:03:53 51°13.636 2°56.019 3.9 34 5.4 102280 44
2012-02-17 07:03:58 51°13.636 2°56.019 4.6 58 5.4 102280 44
2012-02-17 07:04:02 51°13.636 2°56.019 4 20 5.4 102290 44
2012-02-17 07:04:08 51°13.636 2°56.019 6.7 40 5.4 102290 44
2012-02-17 07:04:12 51°13.636 2°56.019 5.3 39 5.4 102280 44
2012-02-17 07:04:18 51°13.635 2°56.019 3.2 32 5.4 102280 44
2012-02-17 07:04:22 51°13.635 2°56.018 3.6 30 5.4 102280 45
2012-02-17 07:04:27 51°13.635 2°56.019 3.2 31 5.4 102280 45
2012-02-17 07:04:33 51°13.636 2°56.019 3.6 27 5.5 102290 46
2012-02-17 07:04:38 51°13.636 2°56.019 4.2 27 5.5 102290 46
2012-02-17 07:04:42 51°13.636 2°56.019 3.1 25 5.5 102290 46
2012-02-17 07:04:47 51°13.636 2°56.019 2.8 28 5.5 102290 46
2012-02-17 07:04:53 51°13.636 2°56.019 2.4 33 5.5 102280 47
2012-02-17 07:04:58 51°13.636 2°56.019 3.4 39 5.5 102280 47
2012-02-17 07:05:02 51°13.636 2°56.019 4.5 40 5.5 102290 46
2012-02-17 07:05:07 51°13.636 2°56.019 4.2 52 5.5 102290 46
2012-02-17 07:05:12 51°13.637 2°56.019 3 32 5.5 102280 46
2012-02-17 07:05:18 51°13.637 2°56.019 3.7 40 5.5 102280 46
2012-02-17 07:05:23 51°13.637 2°56.019 2.2 34 5.5 102280 45
2012-02-17 07:05:27 51°13.637 2°56.019 2.7 31 5.5 102280 45
2012-02-17 07:05:32 51°13.637 2°56.019 2.8 33 5.4 102280 45
2012-02-17 07:05:37 51°13.636 2°56.019 3.3 37 5.4 102280 45
2012-02-17 07:05:42 51°13.636 2°56.019 2.2 33 5.4 102280 44
2012-02-17 07:05:48 51°13.636 2°56.019 5.7 26 5.4 102280 44
2012-02-17 07:05:52 51°13.636 2°56.019 4 39 5.4 102280 45
2012-02-17 07:05:57 51°13.636 2°56.019 5.5 38 5.4 102280 45
2012-02-17 07:06:03 51°13.636 2°56.019 5.2 34 5.4 102280 45
2012-02-17 07:06:08 51°13.636 2°56.019 5.2 53 5.4 102280 45
2012-02-17 07:06:12 51°13.636 2°56.019 5.5 41 5.4 102290 46
2012-02-17 07:06:18 51°13.636 2°56.019 5 40 5.4 102290 46
2012-02-17 07:06:22 51°13.636 2°56.02 4.2 44 5.4 102290 46
2012-02-17 07:06:28 51°13.636 2°56.019 3.3 37 5.4 102290 46
2012-02-17 07:06:32 51°13.636 2°56.018 3.9 31 5.5 102280 47
2012-02-17 07:06:37 51°13.636 2°56.019 4.7 31 5.5 102280 47
2012-02-17 07:06:42 51°13.636 2°56.019 3.9 29 5.4 102280 47
2012-02-17 07:06:47 51°13.637 2°56.019 2.9 38 5.4 102280 47
2012-02-17 07:06:52 51°13.637 2°56.019 3.9 42 5.4 102280 44
2012-02-17 07:06:57 51°13.636 2°56.019 3.1 29 5.4 102280 44
2012-02-17 07:07:02 51°13.636 2°56.018 2.9 33 5.4 102280 44
2012-02-17 07:07:07 51°13.637 2°56.018 4.7 33 5.4 102280 44
2012-02-17 07:07:12 51°13.636 2°56.018 4.2 40 5.4 102280 47
2012-02-17 07:07:17 51°13.636 2°56.018 4.5 56 5.4 102280 47
2012-02-17 07:07:22 51°13.637 2°56.018 4 38 5.4 102290 45
2012-02-17 07:07:27 51°13.637 2°56.018 3.5 41 5.4 102290 45
2012-02-17 07:07:32 51°13.636 2°56.019 3.4 39 5.4 102290 44
2012-02-17 07:07:37 51°13.636 2°56.018 2.7 39 5.4 102290 44
2012-02-17 07:07:42 51°13.636 2°56.018 3.4 20 5.4 102290 46
2012-02-17 07:07:47 51°13.636 2°56.018 3.1 36 5.4 102290 46
2012-02-17 07:07:52 51°13.636 2°56.018 2.5 30 5.4 102280 47
2012-02-17 07:07:57 51°13.636 2°56.018 3.6 31 5.4 102280 47
2012-02-17 07:08:02 51°13.636 2°56.019 4.4 42 5.4 102290 44
2012-02-17 07:08:07 51°13.637 2°56.018 4.3 41 5.4 102290 44
2012-02-17 07:08:12 51°13.636 2°56.019 5.3 42 5.4 102290 47
2012-02-17 07:08:18 51°13.637 2°56.019 4 41 5.4 102290 47
2012-02-17 07:08:22 51°13.637 2°56.019 6.4 37 5.4 102280 44
2012-02-17 07:08:28 51°13.637 2°56.019 4.8 28 5.4 102280 44
2012-02-17 07:08:32 51°13.637 2°56.019 3.9 34 5.4 102290 46
2012-02-17 07:08:37 51°13.637 2°56.019 3.3 41 5.4 102290 46
2012-02-17 07:08:42 51°13.637 2°56.019 3.7 34 5.4 102290 46
2012-02-17 07:08:47 51°13.637 2°56.019 2.7 53 5.4 102290 46
2012-02-17 07:08:52 51°13.637 2°56.019 2.7 29 5.4 102290 46
2012-02-17 07:08:57 51°13.637 2°56.019 2.5 30 5.4 102290 46
2012-02-17 07:09:03 51°13.637 2°56.019 4 40 5.4 102280 47
2012-02-17 07:09:07 51°13.637 2°56.019 3.9 42 5.4 102280 47
2012-02-17 07:09:13 51°13.637 2°56.019 2.9 33 5.4 102280 46
2012-02-17 07:09:18 51°13.637 2°56.019 3.3 32 5.4 102280 46
2012-02-17 07:09:23 51°13.637 2°56.019 5.4 44 5.4 102280 46
2012-02-17 07:09:27 51°13.637 2°56.019 4.8 56 5.4 102280 46
2012-02-17 07:09:32 51°13.637 2°56.019 4.6 19 5.4 102290 47
2012-02-17 07:09:38 51°13.637 2°56.019 4.2 35 5.4 102290 47
2012-02-17 07:09:43 51°13.637 2°56.019 4.6 43 5.4 102290 47
2012-02-17 07:09:47 51°13.637 2°56.019 4.1 38 5.4 102290 47
2012-02-17 07:09:52 51°13.636 2°56.02 5.4 20 5.5 102290 47
2012-02-17 07:09:57 51°13.636 2°56.02 4 56 5.5 102290 47
2012-02-17 07:10:02 51°13.636 2°56.02 4.5 19 5.5 102290 45
2012-02-17 07:10:07 51°13.637 2°56.019 4.7 40 5.5 102290 45
2012-02-17 07:10:12 51°13.637 2°56.019 4.7 42 5.5 102280 47
2012-02-17 07:10:18 51°13.637 2°56.019 3 32 5.5 102280 47
2012-02-17 07:10:23 51°13.637 2°56.019 3.4 39 5.5 102280 43
2012-02-17 07:10:27 51°13.637 2°56.019 4.9 42 5.5 102280 43
2012-02-17 07:10:32 51°13.637 2°56.019 4.8 35 5.5 102280 47
2012-02-17 07:10:37 51°13.637 2°56.019 6 44 5.5 102280 47
2012-02-17 07:10:43 51°13.637 2°56.019 4.6 40 5.5 102280 46
2012-02-17 07:10:48 51°13.637 2°56.019 4.2 39 5.5 102280 46
2012-02-17 07:10:52 51°13.637 2°56.019 3 32 5.5 102290 45
2012-02-17 07:10:57 51°13.637 2°56.018 4.4 56 5.5 102290 45
2012-02-17 07:11:02 51°13.637 2°56.019 6.2 21 5.5 102280 47
2012-02-17 07:11:08 51°13.636 2°56.019 4.7 44 5.5 102280 47
2012-02-17 07:11:12 51°13.636 2°56.019 3.3 29 5.5 102280 44
2012-02-17 07:11:17 51°13.637 2°56.019 2.3 43 5.5 102280 44
2012-02-17 07:11:22 51°13.636 2°56.019 3.7 43 5.5 102290 45
2012-02-17 07:11:28 51°13.636 2°56.019 4.1 41 5.5 102290 45
2012-02-17 07:11:33 51°13.636 2°56.019 3.6 40 5.5 102290 44
2012-02-17 07:11:37 51°13.636 2°56.019 3.9 40 5.5 102290 44
2012-02-17 07:11:42 51°13.636 2°56.019 2.4 40 5.5 102290 44
2012-02-17 07:11:47 51°13.636 2°56.019 3.4 32 5.5 102290 44
2012-02-17 07:11:52 51°13.636 2°56.02 2.3 20 5.5 102280 46
2012-02-17 07:11:57 51°13.636 2°56.02 3.8 35 5.5 102280 46
2012-02-17 07:12:02 51°13.636 2°56.02 3.5 37 5.5 102290 46
2012-02-17 07:12:08 51°13.636 2°56.02 3 39 5.5 102290 46
2012-02-17 07:12:13 51°13.636 2°56.02 4.7 43 5.5 102290 47
2012-02-17 07:12:18 51°13.636 2°56.019 4 56 5.5 102290 47
2012-02-17 07:12:22 51°13.636 2°56.019 3.5 43 5.5 102290 44
2012-02-17 07:12:28 51°13.636 2°56.019 4.1 39 5.5 102290 44
2012-02-17 07:12:33 51°13.636 2°56.019 3.4 40 5.5 102290 47
2012-02-17 07:12:38 51°13.636 2°56.018 2.4 40 5.5 102290 47
2012-02-17 07:12:42 51°13.636 2°56.019 4.8 43 5.5 102290 44
2012-02-17 07:12:48 51°13.636 2°56.018 5 53 5.5 102290 44
2012-02-17 07:12:52 51°13.636 2°56.019 4 40 5.5 102290 44
2012-02-17 07:12:57 51°13.636 2°56.019 4.7 52 5.5 102290 44
2012-02-17 07:13:02 51°13.636 2°56.02 4.6 40 5.5 102290 45
2012-02-17 07:13:08 51°13.636 2°56.019 3.8 30 5.5 102290 45
2012-02-17 07:13:12 51°13.635 2°56.019 4.5 36 5.5 102280 44
2012-02-17 07:13:18 51°13.635 2°56.019 5.5 40 5.5 102280 44
2012-02-17 07:13:23 51°13.635 2°56.019 6 38 5.5 102290 44
2012-02-17 07:13:27 51°13.635 2°56.019 5.1 44 5.5 102290 44
2012-02-17 07:13:33 51°13.635 2°56.019 4.5 41 5.5 102280 47
2012-02-17 07:13:38 51°13.635 2°56.019 3.2 35 5.5 102280 47
2012-02-17 07:13:42 51°13.635 2°56.019 4.8 41 5.5 102280 46
2012-02-17 07:13:47 51°13.635 2°56.019 5 54 5.5 102280 46
2012-02-17 07:13:52 51°13.635 2°56.019 4.2 38 5.5 102290 44
2012-02-17 07:13:57 51°13.635 2°56.019 5.6 25 5.5 102290 44
2012-02-17 07:14:03 51°13.635 2°56.018 4.2 35 5.5 102280 47
2012-02-17 07:14:08 51°13.635 2°56.018 6.4 37 5.5 102280 47
2012-02-17 07:14:12 51°13.635 2°56.018 5.1 37 5.5 102290 45
2012-02-17 07:14:18 51°13.635 2°56.019 5.7 43 5.5 102290 45
2012-02-17 07:14:23 51°13.635 2°56.019 5.9 42 5.5 102290 45
2012-02-17 07:14:28 51°13.635 2°56.019 4.4 56 5.5 102290 45
2012-02-17 07:14:32 51°13.635 2°56.019 4.7 20 5.5 102290 45
2012-02-17 07:14:37 51°13.635 2°56.019 4.9 43 5.5 102290 45
2012-02-17 07:14:42 51°13.636 2°56.019 5.4 43 5.5 102290 47
2012-02-17 07:14:47 51°13.636 2°56.019 5.6 41 5.5 102290 47
2012-02-17 07:14:52 51°13.636 2°56.019 4.5 20 5.5 102290 46
2012-02-17 07:14:57 51°13.636 2°56.019 3.2 36 5.5 102290 46
2012-02-17 07:15:03 51°13.636 2°56.019 3.8 35 5.6 102290 47
2012-02-17 07:15:08 51°13.636 2°56.02 5.1 42 5.6 102290 47
2012-02-17 07:15:13 51°13.636 2°56.02 4.5 31 5.6 102280 45
2012-02-17 07:15:17 51°13.636 2°56.02 6.6 44 5.6 102280 45
2012-02-17 07:15:22 51°13.636 2°56.02 6 40 5.6 102290 45
2012-02-17 07:15:28 51°13.636 2°56.019 4.6 44 5.6 102290 45
2012-02-17 07:15:32 51°13.636 2°56.019 5.9 26 5.6 102290 47
2012-02-17 07:15:37 51°13.636 2°56.019 4.4 33 5.6 102290 47
2012-02-17 07:15:42 51°13.636 2°56.019 4.7 29 5.6 102280 44
2012-02-17 07:15:47 51°13.636 2°56.019 4.2 58 5.6 102280 44
2012-02-17 07:15:52 51°13.636 2°56.019 5.7 19 5.6 102280 45
2012-02-17 07:15:57 51°13.636 2°56.019 3 37 5.6 102280 45
2012-02-17 07:16:02 51°13.637 2°56.019 3 38 5.6 102280 47
2012-02-17 07:16:08 51°13.64 2°56.02 4.6 58 5.6 102280 47
2012-02-17 07:16:13 51°13.641 2°56.02 3.7 36 5.6 102290 46
2012-02-17 07:16:18 51°13.64 2°56.02 2.5 35 5.6 102290 46
2012-02-17 07:16:22 51°13.639 2°56.02 4 35 5.6 102290 47
2012-02-17 07:16:27 51°13.638 2°56.019 5.2 38 5.6 102290 47
2012-02-17 07:16:32 51°13.638 2°56.019 5.9 38 5.6 102280 44
2012-02-17 07:16:37 51°13.638 2°56.019 4.7 36 5.6 102280 44
2012-02-17 07:16:42 51°13.638 2°56.019 5.9 44 5.6 102280 44
2012-02-17 07:16:47 51°13.638 2°56.019 6.5 34 5.6 102280 44
2012-02-17 07:16:52 51°13.637 2°56.02 5.1 39 5.6 102290 46
2012-02-17 07:16:56 51°13.637 2°56.02 5.3 33 5.6 102290 46
2012-02-17 07:17:03 51°13.637 2°56.02 4.2 28 5.6 102290 45
2012-02-17 07:17:07 51°13.637 2°56.02 6.2 33 5.6 102290 45
2012-02-17 07:17:13 51°13.637 2°56.019 4.2 44 5.6 102280 47
2012-02-17 07:17:18 51°13.637 2°56.019 5.3 28 5.6 102280 47
2012-02-17 07:17:23 51°13.637 2°56.019 4.2 32 5.6 102280 45
2012-02-17 07:17:28 51°13.637 2°56.019 5.4 32 5.6 102280 45
2012-02-17 07:17:33 51°13.637 2°56.019 5.7 35 5.6 102280 47
2012-02-17 07:17:38 51°13.637 2°56.019 6.7 29 5.6 102280 47
2012-02-17 07:17:43 51°13.637 2°56.019 5.6 33 5.6 102280 45
2012-02-17 07:17:47 51°13.637 2°56.02 3.9 41 5.6 102280 45
2012-02-17 07:17:53 51°13.637 2°56.019 3.9 44 5.6 102280 47
2012-02-17 07:17:57 51°13.637 2°56.019 3.7 41 5.6 102280 47
2012-02-17 07:18:02 51°13.637 2°56.019 3.2 39 5.6 102280 45
2012-02-17 07:18:07 51°13.637 2°56.019 5.4 45 5.6 102280 45
2012-02-17 07:18:13 51°13.637 2°56.018 4.1 45 5.6 102280 47
2012-02-17 07:18:17 51°13.637 2°56.018 5.5 37 5.6 102280 47
2012-02-17 07:18:22 51°13.636 2°56.019 3.9 34 5.6 102270 43
2012-02-17 07:18:27 51°13.636 2°56.019 5.1 36 5.6 102270 43
2012-02-17 07:18:32 51°13.636 2°56.019 4.5 41 5.6 102280 44
2012-02-17 07:18:38 51°13.636 2°56.019 4.3 39 5.6 102280 44
2012-02-17 07:18:43 51°13.636 2°56.019 3.8 42 5.6 102280 47
2012-02-17 07:18:47 51°13.636 2°56.019 4.1 44 5.6 102280 47
2012-02-17 07:18:52 51°13.636 2°56.019 3.9 44 5.6 102280 46
2012-02-17 07:18:58 51°13.636 2°56.019 4.6 44 5.6 102280 46
2012-02-17 07:19:02 51°13.636 2°56.019 4.7 33 5.6 102280 45
2012-02-17 07:19:07 51°13.636 2°56.019 5.2 51 5.6 102280 45
2012-02-17 07:19:12 51°13.636 2°56.019 4.7 41 5.6 102280 45
2012-02-17 07:19:17 51°13.635 2°56.019 3.8 41 5.6 102280 45
2012-02-17 07:19:23 51°13.635 2°56.019 4 41 5.6 102280 47
2012-02-17 07:19:28 51°13.635 2°56.019 3.6 42 5.6 102280 47
2012-02-17 07:19:32 51°13.635 2°56.019 3.9 26 5.6 102280 45
2012-02-17 07:19:37 51°13.635 2°56.019 2.9 40 5.6 102280 45
2012-02-17 07:19:42 51°13.635 2°56.019 3.1 21 5.6 102280 45
2012-02-17 07:19:47 51°13.635 2°56.019 3.1 56 5.6 102280 45
2012-02-17 07:19:53 51°13.635 2°56.018 3 44 5.6 102280 44
2012-02-17 07:19:57 51°13.635 2°56.018 3.3 40 5.6 102280 44
2012-02-17 07:20:02 51°13.635 2°56.017 5.3 18 5.6 102280 44
2012-02-17 07:20:08 51°13.635 2°56.013 6 42 5.6 102280 44
2012-02-17 07:20:13 51°13.636 2°56.011 5.7 22 5.6 102280 45
2012-02-17 07:20:17 51°13.637 2°56.008 5.8 44 5.6 102280 45
2012-02-17 07:20:22 51°13.638 2°56.004 5.6 44 5.6 102280 44
2012-02-17 07:20:27 51°13.64 2°55.999 4.7 52 5.6 102280 44
2012-02-17 07:20:33 51°13.642 2°55.991 4.6 28 5.6 102280 44
2012-02-17 07:20:37 51°13.643 2°55.986 6 52 5.6 102280 44
2012-02-17 07:20:42 51°13.645 2°55.979 6.2 23 5.6 102280 44
2012-02-17 07:20:48 51°13.648 2°55.969 6.6 57 5.6 102280 44
2012-02-17 07:20:53 51°13.65 2°55.961 6.6 23 5.6 102280 44
2012-02-17 07:20:58 51°13.651 2°55.953 6.5 44 5.6 102280 44
2012-02-17 07:21:02 51°13.653 2°55.947 4.1 25 5.6 102280 44
2012-02-17 07:21:07 51°13.655 2°55.939 5.1 57 5.6 102280 44
2012-02-17 07:21:12 51°13.657 2°55.931 5 44 5.6 102270 46
2012-02-17 07:21:18 51°13.659 2°55.921 7.3 52 5.6 102270 46
2012-02-17 07:21:22 51°13.661 2°55.914 6.4 24 5.6 102280 47
2012-02-17 07:21:28 51°13.663 2°55.905 6.8 55 5.6 102280 47
2012-02-17 07:21:32 51°13.665 2°55.898 5.3 45 5.6 102280 45
2012-02-17 07:21:38 51°13.668 2°55.888 5.4 51 5.6 102280 45
2012-02-17 07:21:43 51°13.671 2°55.88 5 21 5.6 102280 45
2012-02-17 07:21:47 51°13.673 2°55.873 3.9 58 5.6 102280 45
2012-02-17 07:21:52 51°13.675 2°55.864 4.6 26 5.6 102280 44
2012-02-17 07:21:57 51°13.678 2°55.856 4.3 55 5.6 102280 44
2012-02-17 07:22:02 51°13.681 2°55.848 4 22 5.6 102280 47
2012-02-17 07:22:07 51°13.683 2°55.84 5 52 5.6 102280 47
2012-02-17 07:22:13 51°13.686 2°55.832 4.8 27 5.6 102280 45
2012-02-17 07:22:17 51°13.688 2°55.825 3.5 53 5.6 102280 45
2012-02-17 07:22:22 51°13.691 2°55.817 5.3 43 5.6 102280 45
2012-02-17 07:22:27 51°13.694 2°55.809 4.4 50 5.6 102280 45
2012-02-17 07:22:32 51°13.696 2°55.801 4.7 18 5.6 102280 47
2012-02-17 07:22:37 51°13.698 2°55.793 5.3 58 5.6 102280 47
2012-02-17 07:22:43 51°13.701 2°55.785 6.4 19 5.6 102280 44
2012-02-17 07:22:48 51°13.702 2°55.779 4.6 58 5.6 102280 44
2012-02-17 07:22:52 51°13.704 2°55.775 4.5 23 5.6 102280 44
2012-02-17 07:22:58 51°13.705 2°55.773 4.6 51 5.6 102280 44
2012-02-17 07:23:03 51°13.705 2°55.774 4.7 37 5.6 102290 47
2012-02-17 07:23:07 51°13.705 2°55.776 4.3 50 5.6 102290 47
2012-02-17 07:23:12 51°13.706 2°55.78 4.3 43 5.6 102280 46
2012-02-17 07:23:18 51°13.707 2°55.784 1.5 16 5.6 102280 46
2012-02-17 07:23:22 51°13.708 2°55.786 1.5 26 5.6 102280 45
2012-02-17 07:23:27 51°13.708 2°55.788 4 54 5.6 102280 45
2012-02-17 07:23:32 51°13.709 2°55.789 5.6 29 5.6 102280 44
2012-02-17 07:23:37 51°13.709 2°55.788 5.2 54 5.6 102280 44
2012-02-17 07:23:43 51°13.709 2°55.786 3.8 22 5.6 102280 44
2012-02-17 07:23:48 51°13.708 2°55.784 4.6 52 5.6 102280 44
2012-02-17 07:23:52 51°13.706 2°55.781 6.5 24 5.6 102280 44
2012-02-17 07:23:57 51°13.705 2°55.778 6.1 51 5.6 102280 44
2012-02-17 07:24:02 51°13.703 2°55.774 5.6 22 5.6 102290 47
2012-02-17 07:24:07 51°13.701 2°55.771 4.5 53 5.6 102290 47
2012-02-17 07:24:12 51°13.699 2°55.768 4.8 24 5.6 102290 47
2012-02-17 07:24:17 51°13.698 2°55.765 5.5 50 5.6 102290 47
2012-02-17 07:24:22 51°13.697 2°55.763 3 27 5.6 102290 44
2012-02-17 07:24:28 51°13.696 2°55.761 5.8 49 5.6 102290 44
2012-02-17 07:24:33 51°13.696 2°55.762 4.7 21 5.6 102290 44
2012-02-17 07:24:37 51°13.697 2°55.763 4.9 10 5.6 102290 44
2012-02-17 07:24:42 51°13.699 2°55.764 4.2 270 5.6 102290 45
2012-02-17 07:24:47 51°13.702 2°55.766 5.4 305 5.6 102290 45
2012-02-17 07:24:52 51°13.704 2°55.767 4.3 261 5.6 102300 47
2012-02-17 07:24:57 51°13.707 2°55.769 5 310 5.6 102300 47
2012-02-17 07:25:02 51°13.71 2°55.769 6.2 259 5.6 102290 47
2012-02-17 07:25:08 51°13.712 2°55.77 4.7 304 5.6 102290 47
2012-02-17 07:25:13 51°13.713 2°55.77 4.7 256 5.6 102290 44
2012-02-17 07:25:18 51°13.713 2°55.77 7.8 306 5.6 102290 44
2012-02-17 07:25:22 51°13.712 2°55.771 6.4 262 5.6 102290 44
2012-02-17 07:25:27 51°13.712 2°55.771 4.4 306 5.6 102290 44
2012-02-17 07:25:32 51°13.712 2°55.772 5.3 259 5.6 102290 44
2012-02-17 07:25:37 51°13.711 2°55.772 4.2 282 5.6 102290 44
2012-02-17 07:25:42 51°13.711 2°55.772 5.8 262 5.6 102290 49
2012-02-17 07:25:47 51°13.712 2°55.773 7.2 305 5.6 102290 49
2012-02-17 07:25:52 51°13.714 2°55.773 6.1 253 5.6 102300 47
2012-02-17 07:25:58 51°13.717 2°55.772 5.5 307 5.6 102300 47
2012-02-17 07:26:03 51°13.721 2°55.77 5.7 249 5.6 102290 46
2012-02-17 07:26:07 51°13.724 2°55.767 5.9 304 5.6 102290 46
2012-02-17 07:26:13 51°13.729 2°55.761 4.6 24 5.6 102290 44
2012-02-17 07:26:18 51°13.734 2°55.755 6 310 5.6 102290 44
2012-02-17 07:26:23 51°13.739 2°55.748 6.5 18 5.6 102300 43
2012-02-17 07:26:27 51°13.743 2°55.742 4.6 305 5.6 102300 43
2012-02-17 07:26:33 51°13.748 2°55.733 4.7 18 5.6 102300 45
2012-02-17 07:26:37 51°13.752 2°55.727 5.3 304 5.6 102300 45
2012-02-17 07:26:42 51°13.757 2°55.719 4.9 22 5.6 102280 44
2012-02-17 07:26:47 51°13.762 2°55.712 4.8 308 5.6 102280 44
2012-02-17 07:26:53 51°13.768 2°55.702 5.6 316 5.6 102280 45
2012-02-17 07:26:58 51°13.774 2°55.695 6.1 310 5.6 102280 45
2012-02-17 07:27:02 51°13.778 2°55.689 5.3 319 5.6 102280 46
2012-02-17 07:27:08 51°13.784 2°55.68 5.1 303 5.6 102280 46
2012-02-17 07:27:12 51°13.788 2°55.674 6 320 5.6 102290 47
2012-02-17 07:27:17 51°13.795 2°55.667 3.2 305 5.6 102290 47
2012-02-17 07:27:22 51°13.802 2°55.659 6 318 5.6 102290 44
2012-02-17 07:27:27 51°13.81 2°55.651 6.6 308 5.6 102290 44
2012-02-17 07:27:32 51°13.818 2°55.643 7 22 5.6 102290 44
2012-02-17 07:27:38 51°13.83 2°55.633 5.6 279 5.6 102290 44
2012-02-17 07:27:43 51°13.84 2°55.623 6 317 5.5 102290 45
2012-02-17 07:27:48 51°13.85 2°55.615 6.3 308 5.5 102290 45
2012-02-17 07:27:53 51°13.86 2°55.606 6.3 318 5.6 102280 45
2012-02-17 07:27:57 51°13.869 2°55.599 8.5 310 5.6 102280 45
2012-02-17 07:28:02 51°13.88 2°55.59 6.3 21 5.6 102290 47
2012-02-17 07:28:07 51°13.892 2°55.582 7.8 307 5.6 102290 47
2012-02-17 07:28:12 51°13.904 2°55.574 9.9 19 5.6 102290 47
2012-02-17 07:28:17 51°13.916 2°55.566 6.6 308 5.6 102290 47
2012-02-17 07:28:22 51°13.928 2°55.558 5.8 18 5.5 102290 46
2012-02-17 07:28:27 51°13.941 2°55.55 4 302 5.5 102290 46
2012-02-17 07:28:32 51°13.953 2°55.542 4.1 315 5.5 102280 47
2012-02-17 07:28:37 51°13.965 2°55.535 6.7 281 5.5 102280 47
2012-02-17 07:28:42 51°13.978 2°55.527 6.2 21 5.5 102290 47
2012-02-17 07:28:48 51°13.993 2°55.518 7.9 304 5.5 102290 47
2012-02-17 07:28:52 51°14.003 2°55.511 7.2 22 5.5 102290 44
2012-02-17 07:28:58 51°14.018 2°55.502 4.8 307 5.5 102290 44
2012-02-17 07:29:02 51°14.029 2°55.496 7.9 21 5.5 102290 43
2012-02-17 07:29:08 51°14.044 2°55.485 5.9 304 5.5 102290 43
2012-02-17 07:29:13 51°14.057 2°55.477 5.7 19 5.5 102280 44
2012-02-17 07:29:17 51°14.067 2°55.469 6 311 5.5 102280 44
2012-02-17 07:29:22 51°14.079 2°55.46 5.1 318 5.5 102290 45
2012-02-17 07:29:28 51°14.094 2°55.449 5.2 305 5.5 102290 45
2012-02-17 07:29:33 51°14.106 2°55.44 5.4 325 5.4 102290 45
2012-02-17 07:29:38 51°14.119 2°55.431 5.3 286 5.4 102290 45
2012-02-17 07:29:42 51°14.129 2°55.424 6.6 315 5.4 102290 45
2012-02-17 07:29:47 51°14.142 2°55.414 8 309 5.4 102290 45
2012-02-17 07:29:52 51°14.154 2°55.404 10.1 20 5.4 102290 44
2012-02-17 07:29:58 51°14.168 2°55.391 6.9 310 5.4 102290 44
2012-02-17 07:30:02 51°14.177 2°55.382 7.6 316 5.4 102290 46
2012-02-17 07:30:07 51°14.189 2°55.371 10.7 307 5.4 102290 46
2012-02-17 07:30:12 51°14.201 2°55.36 9.2 27 5.3 102280 45
2012-02-17 07:30:17 51°14.213 2°55.349 8.2 308 5.3 102280 45
2012-02-17 07:30:22 51°14.224 2°55.337 7.3 18 5.3 102310 46
2012-02-17 07:30:27 51°14.236 2°55.325 8 304 5.3 102310 46
2012-02-17 07:30:33 51°14.25 2°55.311 9.2 24 5.3 102270 46
2012-02-17 07:30:37 51°14.259 2°55.302 7.1 285 5.3 102270 46
2012-02-17 07:30:42 51°14.27 2°55.289 8.1 21 5.3 102290 46
2012-02-17 07:30:48 51°14.285 2°55.275 9.3 311 5.3 102290 46
2012-02-17 07:30:52 51°14.294 2°55.266 10.2 19 5.2 102290 46
2012-02-17 07:30:58 51°14.307 2°55.252 7.9 310 5.2 102290 46
2012-02-17 07:31:03 51°14.319 2°55.24 9.2 21 5.1 102280 46
2012-02-17 07:31:08 51°14.331 2°55.229 9.6 307 5.1 102280 46
2012-02-17 07:31:12 51°14.341 2°55.221 8.2 24 5.1 102280 45
2012-02-17 07:31:18 51°14.355 2°55.207 8.2 306 5.1 102280 45
2012-02-17 07:31:23 51°14.366 2°55.195 8.1 20 5 102280 45
2012-02-17 07:31:28 51°14.378 2°55.184 8.2 307 5 102280 45
2012-02-17 07:31:32 51°14.387 2°55.175 7.7 25 4.9 102280 45
2012-02-17 07:31:37 51°14.398 2°55.164 8.2 281 4.9 102280 45
2012-02-17 07:31:42 51°14.41 2°55.153 8.2 25 4.9 102280 43
2012-02-17 07:31:48 51°14.424 2°55.14 8.4 305 4.9 102280 43
2012-02-17 07:31:52 51°14.433 2°55.131 8.5 22 4.8 102270 44
2012-02-17 07:31:57 51°14.446 2°55.121 8.2 305 4.8 102270 44
2012-02-17 07:32:03 51°14.46 2°55.108 8.5 21 4.7 102280 45
2012-02-17 07:32:07 51°14.471 2°55.099 7.1 307 4.7 102280 45
2012-02-17 07:32:12 51°14.484 2°55.086 10.6 23 4.7 102270 45
2012-02-17 07:32:18 51°14.5 2°55.07 7.5 309 4.7 102270 45
2012-02-17 07:32:23 51°14.513 2°55.057 8.2 20 4.6 102280 43
2012-02-17 07:32:28 51°14.527 2°55.043 8.3 309 4.6 102280 43
2012-02-17 07:32:32 51°14.539 2°55.033 8.7 18 4.6 102270 45
2012-02-17 07:32:37 51°14.555 2°55.022 10.6 287 4.6 102270 45
2012-02-17 07:32:42 51°14.57 2°55.011 8.7 21 4.6 102270 45
2012-02-17 07:32:48 51°14.589 2°54.999 9.3 307 4.6 102270 45
2012-02-17 07:32:52 51°14.602 2°54.991 10.2 23 4.5 102270 43
2012-02-17 07:32:57 51°14.618 2°54.979 8.1 308 4.5 102270 43
2012-02-17 07:33:02 51°14.633 2°54.967 10.7 26 4.5 102280 45
2012-02-17 07:33:07 51°14.647 2°54.953 9.3 308 4.5 102280 45
2012-02-17 07:33:12 51°14.661 2°54.939 8.9 21 4.4 102280 44
2012-02-17 07:33:16 51°14.674 2°54.929 8.2 308 4.4 102280 44
2012-02-17 07:33:22 51°14.692 2°54.916 8.3 26 4.4 102260 45
2012-02-17 07:33:27 51°14.709 2°54.908 7.3 304 4.4 102260 45
2012-02-17 07:33:32 51°14.725 2°54.9 8.8 26 4.3 102270 45
2012-02-17 07:33:37 51°14.742 2°54.893 7.4 281 4.3 102270 45
2012-02-17 07:33:41 51°14.755 2°54.888 8.5 23 4.3 102280 43
2012-02-17 07:33:47 51°14.777 2°54.882 7.6 303 4.3 102280 43
2012-02-17 07:33:52 51°14.794 2°54.878 7 19 4.3 102270 45
2012-02-17 07:33:57 51°14.812 2°54.876 7.6 306 4.3 102270 45
2012-02-17 07:34:01 51°14.827 2°54.874 8.1 25 4.3 102270 44
2012-02-17 07:34:06 51°14.845 2°54.873 6.6 302 4.3 102270 44
2012-02-17 07:34:11 51°14.863 2°54.872 6.7 25 4.2 102280 45
2012-02-17 07:34:16 51°14.881 2°54.873 6.7 306 4.2 102280 45
2012-02-17 07:34:21 51°14.899 2°54.873 6 21 4.2 102290 42
2012-02-17 07:34:25 51°14.914 2°54.874 6.4 306 4.2 102290 42
2012-02-17 07:34:31 51°14.936 2°54.876 6.7 22 4.2 102280 44
2012-02-17 07:34:36 51°14.954 2°54.879 6.4 286 4.2 102280 44
2012-02-17 07:34:41 51°14.972 2°54.884 6.3 20 4.2 102290 45
2012-02-17 07:34:46 51°14.99 2°54.89 5.8 307 4.2 102290 45
2012-02-17 07:34:50 51°15.005 2°54.896 5.3 22 4.1 102290 43
2012-02-17 07:34:56 51°15.027 2°54.905 5.3 308 4.1 102290 43
2012-02-17 07:35:00 51°15.041 2°54.912 5.1 245 4.1 102290 44
2012-02-17 07:35:05 51°15.059 2°54.92 4.7 306 4.1 102290 44
2012-02-17 07:35:10 51°15.077 2°54.93 5.2 18 4.1 102290 45
2012-02-17 07:35:15 51°15.095 2°54.94 4.1 308 4.1 102290 45
2012-02-17 07:35:20 51°15.112 2°54.95 5.1 21 4.1 102290 46
2012-02-17 07:35:25 51°15.13 2°54.961 5 302 4.1 102290 46
2012-02-17 07:35:30 51°15.148 2°54.972 4.8 247 4.1 102290 43
2012-02-17 07:35:34 51°15.162 2°54.982 5.2 278 4.1 102290 43
2012-02-17 07:35:39 51°15.179 2°54.994 4.4 21 4.1 102290 45
2012-02-17 07:35:44 51°15.196 2°55.007 3.7 309 4.1 102290 45
2012-02-17 07:35:49 51°15.214 2°55.02 4.4 20 4 102300 44
2012-02-17 07:35:54 51°15.231 2°55.032 4.5 302 4 102300 44
2012-02-17 07:35:59 51°15.248 2°55.046 4.4 246 4 102290 46
2012-02-17 07:36:04 51°15.265 2°55.058 4.1 309 4 102290 46
2012-02-17 07:36:09 51°15.282 2°55.071 4.3 250 4 102290 43
2012-02-17 07:36:14 51°15.299 2°55.084 3.9 305 4 102290 43
2012-02-17 07:36:19 51°15.316 2°55.098 4.6 251 4 102300 45
2012-02-17 07:36:24 51°15.333 2°55.111 4 307 4 102300 45
2012-02-17 07:36:29 51°15.35 2°55.124 3.6 23 4 102290 44
2012-02-17 07:36:34 51°15.367 2°55.138 3.9 284 4 102290 44
2012-02-17 07:36:39 51°15.385 2°55.151 3.9 247 4 102290 44
2012-02-17 07:36:44 51°15.402 2°55.165 3.8 305 4 102290 44
2012-02-17 07:36:49 51°15.419 2°55.178 3.3 250 4 102300 46
2012-02-17 07:36:54 51°15.435 2°55.193 2.7 305 4 102300 46
2012-02-17 07:36:59 51°15.451 2°55.21 2.3 251 4 102290 42
2012-02-17 07:37:03 51°15.464 2°55.224 2.8 309 4 102290 42
2012-02-17 07:37:08 51°15.479 2°55.242 2.4 250 4 102290 46
2012-02-17 07:37:15 51°15.501 2°55.268 2 306 4 102290 46
2012-02-17 07:37:19 51°15.513 2°55.284 2 18 4 102300 45
2012-02-17 07:37:24 51°15.528 2°55.303 1.7 309 4 102300 45
2012-02-17 07:37:29 51°15.542 2°55.325 1.8 256 4 102300 45
2012-02-17 07:37:34 51°15.556 2°55.345 0.9 278 4 102300 45
2012-02-17 07:37:39 51°15.569 2°55.367 0.6 261 4 102300 43
2012-02-17 07:37:44 51°15.584 2°55.388 0.9 307 4 102300 43
2012-02-17 07:37:48 51°15.594 2°55.406 0.3 245 4 102280 44
2012-02-17 07:37:53 51°15.608 2°55.428 1.3 303 4 102280 44
2012-02-17 07:37:59 51°15.624 2°55.455 0.8 20 4 102300 43
2012-02-17 07:38:05 51°15.64 2°55.481 1.2 303 4 102300 43
2012-02-17 07:38:09 51°15.651 2°55.499 0.5 257 4 102300 44
2012-02-17 07:38:14 51°15.665 2°55.52 1.1 306 4 102300 44
2012-02-17 07:38:19 51°15.678 2°55.542 0.2 22 4 102290 44
2012-02-17 07:38:24 51°15.693 2°55.562 1.5 304 4 102290 44
2012-02-17 07:38:29 51°15.707 2°55.582 2.2 18 4 102290 44
2012-02-17 07:38:34 51°15.721 2°55.603 1.5 282 4 102290 44
2012-02-17 07:38:39 51°15.736 2°55.624 1.5 20 4 102300 44
2012-02-17 07:38:44 51°15.749 2°55.647 1.2 307 4 102300 44
2012-02-17 07:38:49 51°15.762 2°55.668 1 254 4 102300 46
2012-02-17 07:38:54 51°15.775 2°55.692 0.5 309 4 102300 46
2012-02-17 07:38:58 51°15.785 2°55.71 0.2 252 4 102290 46
2012-02-17 07:39:03 51°15.798 2°55.733 0.3 309 4 102290 46
2012-02-17 07:39:09 51°15.813 2°55.761 0.1 246 4 102300 45
2012-02-17 07:39:14 51°15.825 2°55.785 0.5 311 4 102300 45
2012-02-17 07:39:19 51°15.837 2°55.809 0.3 249 4 102290 45
2012-02-17 07:39:24 51°15.849 2°55.833 0.1 302 4 102290 45
2012-02-17 07:39:29 51°15.861 2°55.857 0.5 26 4 102300 44
2012-02-17 07:39:34 51°15.873 2°55.882 0.4 284 4 102300 44
2012-02-17 07:39:39 51°15.886 2°55.906 0.2 22 4 102300 44
2012-02-17 07:39:44 51°15.899 2°55.93 1.3 303 4 102300 44
2012-02-17 07:39:49 51°15.911 2°55.954 0.3 26 4 102300 47
2012-02-17 07:39:54 51°15.923 2°55.978 0.2 304 4 102300 47
2012-02-17 07:39:59 51°15.934 2°56.003 0.2 20 4 102300 45
2012-02-17 07:40:04 51°15.945 2°56.028 0.5 310 4 102300 45
2012-02-17 07:40:09 51°15.957 2°56.053 0.2 27 4 102310 45
2012-02-17 07:40:14 51°15.969 2°56.078 0.1 306 4 102310 45
2012-02-17 07:40:18 51°15.978 2°56.097 0.1 18 4 102300 45
2012-02-17 07:40:24 51°15.991 2°56.128 0.1 307 4 102300 45
2012-02-17 07:40:29 51°16.003 2°56.153 0.1 256 4 102310 45
2012-02-17 07:40:34 51°16.013 2°56.179 0.1 283 4 102310 45
2012-02-17 07:40:39 51°16.026 2°56.204 0.1 26 4 102300 45
2012-02-17 07:40:44 51°16.036 2°56.229 0.1 311 4 102300 45
2012-02-17 07:40:49 51°16.047 2°56.254 0.1 21 4 102300 45
2012-02-17 07:40:54 51°16.059 2°56.28 0.1 307 4 102300 45
2012-02-17 07:40:59 51°16.07 2°56.305 0.1 22 4 102300 45
2012-02-17 07:41:04 51°16.081 2°56.329 0.1 311 4 102300 45
2012-02-17 07:41:09 51°16.093 2°56.355 0.2 21 4 102300 45
2012-02-17 07:41:15 51°16.107 2°56.384 0.1 311 4 102300 45
2012-02-17 07:41:19 51°16.114 2°56.405 0.1 21 4 102300 45
2012-02-17 07:41:24 51°16.126 2°56.43 0.1 302 4 102300 45
2012-02-17 07:41:29 51°16.137 2°56.455 0.1 21 4 102300 45
2012-02-17 07:41:34 51°16.149 2°56.48 0.1 302 4 102300 45
2012-02-17 07:41:39 51°16.16 2°56.505 0.1 262 3.9 102300 45
2012-02-17 07:41:43 51°16.168 2°56.525 -999 306 3.9 102300 45
2012-02-17 07:41:49 51°16.182 2°56.555 0.6 20 4 102300 45
2012-02-17 07:41:54 51°16.193 2°56.58 0.6 307 4 102300 45
2012-02-17 07:41:59 51°16.202 2°56.607 0.1 332 4 102300 45
2012-02-17 07:42:04 51°16.213 2°56.632 0.1 306 4 102300 45
2012-02-17 07:42:09 51°16.221 2°56.659 0.1 341 4 102300 44
2012-02-17 07:42:14 51°16.231 2°56.685 0.1 335 4 102300 44
2012-02-17 07:42:20 51°16.241 2°56.719 0.1 335 4 102300 44
2012-02-17 07:42:24 51°16.248 2°56.741 -999 353 4 102300 44
2012-02-17 07:42:29 51°16.256 2°56.77 -999 340 4 102310 45
2012-02-17 07:42:34 51°16.265 2°56.797 0.1 287 4 102310 45
2012-02-17 07:42:39 51°16.272 2°56.825 0.1 13 4 102300 45
2012-02-17 07:42:44 51°16.281 2°56.853 0.1 2 4 102300 45
2012-02-17 07:42:49 51°16.288 2°56.882 0.1 4 4 102300 45
2012-02-17 07:42:54 51°16.296 2°56.91 0.4 2 4 102300 45
2012-02-17 07:42:59 51°16.302 2°56.938 0.8 358 4 102300 45
2012-02-17 07:43:04 51°16.309 2°56.967 0.5 9 4 102300 45
2012-02-17 07:43:08 51°16.313 2°56.99 1 13 4 102300 45
2012-02-17 07:43:13 51°16.321 2°57.02 0.4 5 4 102300 45
2012-02-17 07:43:18 51°16.327 2°57.049 0.9 358 3.9 102300 45
2012-02-17 07:43:24 51°16.335 2°57.084 0.3 21 3.9 102300 45
2012-02-17 07:43:29 51°16.343 2°57.113 0.2 19 3.9 102300 45
2012-02-17 07:43:34 51°16.349 2°57.142 0.3 16 3.9 102300 45
2012-02-17 07:43:39 51°16.357 2°57.171 0.7 9 3.9 102300 45
2012-02-17 07:43:44 51°16.363 2°57.2 0.2 8 3.9 102300 45
2012-02-17 07:43:50 51°16.372 2°57.234 0.2 360 3.9 102300 43
2012-02-17 07:43:55 51°16.379 2°57.263 0.3 16 3.9 102300 43
2012-02-17 07:43:59 51°16.384 2°57.286 0.4 5 3.9 102300 45
2012-02-17 07:44:04 51°16.392 2°57.315 0.2 1 3.9 102300 45
2012-02-17 07:44:09 51°16.399 2°57.344 0.3 4 3.9 102300 45
2012-02-17 07:44:14 51°16.406 2°57.373 0.4 11 3.9 102300 45
2012-02-17 07:44:19 51°16.415 2°57.402 0.1 6 3.9 102300 45
2012-02-17 07:44:24 51°16.423 2°57.431 0.3 13 3.9 102300 45
2012-02-17 07:44:30 51°16.432 2°57.465 0.2 16 3.9 102300 45
2012-02-17 07:44:35 51°16.44 2°57.493 0.1 10 3.9 102300 45
2012-02-17 07:44:39 51°16.446 2°57.516 0.1 11 3.9 102300 45
2012-02-17 07:44:44 51°16.454 2°57.545 0.4 13 3.9 102300 45
2012-02-17 07:44:49 51°16.462 2°57.573 0.1 3 3.9 102300 45
2012-02-17 07:44:54 51°16.469 2°57.602 0.7 357 3.9 102300 45
2012-02-17 07:44:59 51°16.477 2°57.63 0.2 16 3.9 102300 44
2012-02-17 07:45:04 51°16.485 2°57.659 0.2 16 3.9 102300 44
2012-02-17 07:45:08 51°16.491 2°57.683 0.4 8 3.8 102300 45
2012-02-17 07:45:14 51°16.501 2°57.717 0.2 8 3.8 102300 45
2012-02-17 07:45:19 51°16.507 2°57.746 0.6 16 3.8 102300 47
2012-02-17 07:45:24 51°16.515 2°57.774 0.1 15 3.8 102300 47
2012-02-17 07:45:29 51°16.523 2°57.802 0.1 15 3.9 102300 45
2012-02-17 07:45:34 51°16.532 2°57.83 -999 14 3.9 102300 45
2012-02-17 07:45:39 51°16.541 2°57.858 0.1 13 3.8 102300 45
2012-02-17 07:45:44 51°16.55 2°57.886 0.1 347 3.8 102300 45
2012-02-17 07:45:49 51°16.559 2°57.913 0.3 325 3.8 102300 45
2012-02-17 07:45:54 51°16.569 2°57.939 0.2 304 3.8 102300 45
2012-02-17 07:45:59 51°16.58 2°57.966 0.1 323 3.8 102300 45
2012-02-17 07:46:04 51°16.59 2°57.992 0.1 305 3.8 102300 45
2012-02-17 07:46:09 51°16.601 2°58.018 0.4 20 3.8 102310 45
2012-02-17 07:46:15 51°16.614 2°58.047 1.2 307 3.8 102310 45
2012-02-17 07:46:19 51°16.624 2°58.068 0.3 251 3.8 102300 45
2012-02-17 07:46:25 51°16.639 2°58.097 0.3 304 3.8 102300 45
2012-02-17 07:46:29 51°16.648 2°58.117 0.2 265 3.8 102300 44
2012-02-17 07:46:34 51°16.66 2°58.141 0.7 278 3.8 102300 44
2012-02-17 07:46:39 51°16.671 2°58.165 0.3 264 3.8 102290 43
2012-02-17 07:46:44 51°16.684 2°58.19 0.1 309 3.8 102290 43
2012-02-17 07:46:49 51°16.696 2°58.215 0.1 20 3.8 102300 45
2012-02-17 07:46:54 51°16.708 2°58.239 0.2 309 3.8 102300 45
2012-02-17 07:46:59 51°16.72 2°58.263 1 253 3.8 102310 45
2012-02-17 07:47:04 51°16.731 2°58.288 0.3 309 3.8 102310 45
2012-02-17 07:47:09 51°16.743 2°58.312 0.1 261 3.8 102300 44
2012-02-17 07:47:14 51°16.754 2°58.338 0.2 307 3.8 102300 44
2012-02-17 07:47:19 51°16.766 2°58.363 0.4 267 3.8 102310 44
2012-02-17 07:47:24 51°16.777 2°58.389 0.1 301 3.8 102310 44
2012-02-17 07:47:29 51°16.789 2°58.415 0.2 20 3.8 102310 45
2012-02-17 07:47:34 51°16.801 2°58.44 0.1 304 3.8 102310 45
2012-02-17 07:47:39 51°16.813 2°58.464 0.5 250 3.8 102310 44
2012-02-17 07:47:44 51°16.824 2°58.489 0.3 310 3.8 102310 44
2012-02-17 07:47:49 51°16.836 2°58.514 0.1 26 3.8 102310 45
2012-02-17 07:47:53 51°16.846 2°58.533 0.4 311 3.8 102310 45
2012-02-17 07:47:58 51°16.857 2°58.559 0.2 249 3.8 102300 43
2012-02-17 07:48:03 51°16.87 2°58.583 0.7 302 3.8 102300 43
2012-02-17 07:48:08 51°16.882 2°58.607 0.6 21 3.9 102310 45
2012-02-17 07:48:14 51°16.897 2°58.637 0.2 304 3.9 102310 45
2012-02-17 07:48:19 51°16.909 2°58.662 0.1 19 3.8 102310 45
2012-02-17 07:48:24 51°16.92 2°58.688 0.1 302 3.8 102310 45
2012-02-17 07:48:29 51°16.932 2°58.712 0.5 21 3.8 102300 45
2012-02-17 07:48:34 51°16.943 2°58.738 0.1 283 3.8 102300 45
2012-02-17 07:48:39 51°16.954 2°58.764 0.1 24 3.8 102300 45
2012-02-17 07:48:44 51°16.966 2°58.789 0.1 302 3.8 102300 45
2012-02-17 07:48:49 51°16.977 2°58.816 0.1 24 3.9 102300 45
2012-02-17 07:48:54 51°16.989 2°58.842 0.2 311 3.9 102300 45
2012-02-17 07:48:59 51°17 2°58.867 0.2 256 3.9 102300 45
2012-02-17 07:49:03 51°17.01 2°58.887 0.1 311 3.9 102300 45
2012-02-17 07:49:09 51°17.024 2°58.917 0.1 20 3.8 102300 47
2012-02-17 07:49:14 51°17.035 2°58.943 0.2 311 3.8 102300 47
2012-02-17 07:49:19 51°17.047 2°58.969 0.1 21 3.9 102300 46
2012-02-17 07:49:24 51°17.058 2°58.995 0.1 330 3.9 102300 46
2012-02-17 07:49:29 51°17.069 2°59.021 -999 22 3.8 102310 45
2012-02-17 07:49:34 51°17.079 2°59.048 -999 306 3.8 102310 45
2012-02-17 07:49:39 51°17.091 2°59.074 0.4 20 3.8 102310 45
2012-02-17 07:49:44 51°17.101 2°59.1 0.1 343 3.8 102310 45
2012-02-17 07:49:49 51°17.112 2°59.126 0.1 20 3.9 102300 45
2012-02-17 07:49:54 51°17.123 2°59.153 0.1 305 3.9 102300 45
2012-02-17 07:49:59 51°17.133 2°59.179 0.1 325 3.9 102300 45
2012-02-17 07:50:04 51°17.144 2°59.205 0.1 304 3.9 102300 45
2012-02-17 07:50:09 51°17.154 2°59.232 0.1 327 3.8 102300 45
2012-02-17 07:50:14 51°17.166 2°59.257 0.1 307 3.8 102300 45
2012-02-17 07:50:19 51°17.176 2°59.285 0.1 22 3.8 102300 44
2012-02-17 07:50:24 51°17.188 2°59.31 0.1 307 3.8 102300 44
2012-02-17 07:50:28 51°17.197 2°59.331 0.1 26 3.9 102300 45
2012-02-17 07:50:34 51°17.211 2°59.361 0.1 287 3.9 102300 45
2012-02-17 07:50:40 51°17.225 2°59.391 0.1 22 3.8 102310 45
2012-02-17 07:50:44 51°17.234 2°59.412 0.1 311 3.8 102310 45
2012-02-17 07:50:49 51°17.246 2°59.437 0.1 252 3.9 102300 45
2012-02-17 07:50:54 51°17.257 2°59.464 0.1 331 3.9 102300 45
2012-02-17 07:50:59 51°17.268 2°59.489 -999 322 3.9 102300 45
2012-02-17 07:51:05 51°17.281 2°59.521 0.1 310 3.9 102300 45
2012-02-17 07:51:09 51°17.291 2°59.541 0.1 21 3.9 102310 45
2012-02-17 07:51:14 51°17.302 2°59.567 0.1 306 3.9 102310 45
2012-02-17 07:51:19 51°17.314 2°59.592 -999 25 3.9 102300 45
2012-02-17 07:51:24 51°17.326 2°59.617 0.1 307 3.9 102300 45
2012-02-17 07:51:29 51°17.338 2°59.642 0.1 27 3.9 102300 45
2012-02-17 07:51:34 51°17.35 2°59.666 0.1 304 3.9 102300 45
2012-02-17 07:51:39 51°17.362 2°59.692 0.1 19 3.9 102300 45
2012-02-17 07:51:44 51°17.374 2°59.717 0.6 309 3.9 102300 45
2012-02-17 07:51:49 51°17.386 2°59.742 0.1 25 3.9 102300 45
2012-02-17 07:51:54 51°17.398 2°59.767 0.5 309 3.9 102300 45
2012-02-17 07:51:59 51°17.409 2°59.793 0.2 20 3.9 102300 45
2012-02-17 07:52:04 51°17.421 2°59.818 0.1 310 3.9 102300 45
2012-02-17 07:52:09 51°17.431 2°59.845 0.1 335 3.9 102300 45
2012-02-17 07:52:14 51°17.442 2°59.871 0.1 325 3.9 102300 45
2012-02-17 07:52:19 51°17.452 2°59.898 0.2 333 3.9 102300 45
2012-02-17 07:52:24 51°17.463 2°59.925 0.6 334 3.9 102300 45
2012-02-17 07:52:29 51°17.473 2°59.951 0.2 333 3.9 102300 45
2012-02-17 07:52:34 51°17.484 2°59.977 0.1 279 3.9 102300 45
2012-02-17 07:52:38 51°17.492 2°59.999 0.1 333 3.9 102300 45
2012-02-17 07:52:43 51°17.503 3°0.026 0.1 324 3.9 102300 45
2012-02-17 07:52:48 51°17.513 3°0.053 0.1 335 3.9 102300 45
2012-02-17 07:52:54 51°17.526 3°0.084 0.1 329 3.9 102300 45
2012-02-17 07:52:59 51°17.536 3°0.111 0.1 327 3.9 102290 44
2012-02-17 07:53:04 51°17.547 3°0.138 0.1 326 3.9 102290 44
2012-02-17 07:53:09 51°17.557 3°0.164 0.2 320 3.9 102300 45
2012-02-17 07:53:14 51°17.568 3°0.191 0.1 304 3.9 102300 45
2012-02-17 07:53:19 51°17.578 3°0.217 0.2 323 3.9 102310 45
2012-02-17 07:53:23 51°17.587 3°0.238 0.1 328 3.9 102310 45
2012-02-17 07:53:28 51°17.598 3°0.265 0.2 318 3.9 102300 45
2012-02-17 07:53:34 51°17.611 3°0.296 0.1 311 3.9 102300 45
2012-02-17 07:53:39 51°17.622 3°0.322 0.1 26 3.9 102300 45
2012-02-17 07:53:43 51°17.632 3°0.342 0.2 304 3.9 102300 45
2012-02-17 07:53:48 51°17.643 3°0.368 0.4 328 3.9 102300 45
2012-02-17 07:53:55 51°17.66 3°0.403 1.3 304 3.9 102300 45
2012-02-17 07:53:59 51°17.669 3°0.423 0.2 326 3.9 102300 45
2012-02-17 07:54:04 51°17.68 3°0.448 0.4 325 3.9 102300 45
2012-02-17 07:54:09 51°17.692 3°0.475 0.2 326 3.9 102300 45
2012-02-17 07:54:14 51°17.703 3°0.501 1.5 333 3.9 102300 45
2012-02-17 07:54:19 51°17.715 3°0.526 0.6 332 3.9 102300 45
2012-02-17 07:54:24 51°17.726 3°0.553 0.4 304 3.9 102300 45
2012-02-17 07:54:29 51°17.736 3°0.58 0.2 324 3.8 102300 43
2012-02-17 07:54:34 51°17.748 3°0.607 0.2 282 3.8 102300 43
2012-02-17 07:54:39 51°17.758 3°0.634 0.1 324 3.8 102300 45
2012-02-17 07:54:44 51°17.769 3°0.66 0.1 329 3.8 102300 45
2012-02-17 07:54:48 51°17.778 3°0.682 0.1 325 3.8 102300 45
2012-02-17 07:54:54 51°17.79 3°0.715 0.1 325 3.8 102300 45
2012-02-17 07:54:59 51°17.802 3°0.741 0.1 328 3.8 102300 45
2012-02-17 07:55:04 51°17.812 3°0.768 0.1 302 3.8 102300 45
2012-02-17 07:55:09 51°17.823 3°0.794 0.1 325 3.8 102300 45
2012-02-17 07:55:14 51°17.834 3°0.82 0.1 307 3.8 102300 45
2012-02-17 07:55:19 51°17.845 3°0.847 0.1 348 3.8 102300 45
2012-02-17 07:55:24 51°17.857 3°0.874 0.1 302 3.8 102300 45
2012-02-17 07:55:29 51°17.868 3°0.9 0.1 325 3.8 102310 45
2012-02-17 07:55:34 51°17.88 3°0.926 0.1 325 3.8 102310 45
2012-02-17 07:55:39 51°17.891 3°0.952 0.1 325 3.8 102300 44
2012-02-17 07:55:44 51°17.903 3°0.977 0.4 309 3.8 102300 44
2012-02-17 07:55:49 51°17.914 3°1.002 0.2 25 3.8 102300 45
2012-02-17 07:55:54 51°17.927 3°1.028 0.1 302 3.8 102300 45
2012-02-17 07:55:59 51°17.939 3°1.054 0.4 21 3.8 102300 45
2012-02-17 07:56:05 51°17.953 3°1.084 0.1 303 3.8 102300 45
2012-02-17 07:56:08 51°17.96 3°1.098 0.4 256 3.8 102310 44
2012-02-17 07:56:13 51°17.973 3°1.123 0.3 309 3.8 102310 44
2012-02-17 07:56:20 51°17.99 3°1.159 0.1 22 3.8 102300 45
2012-02-17 07:56:25 51°18.002 3°1.185 0.1 309 3.8 102300 45
2012-02-17 07:56:29 51°18.011 3°1.206 0.1 21 3.8 102300 44
2012-02-17 07:56:34 51°18.023 3°1.231 0.1 283 3.8 102300 44
2012-02-17 07:56:39 51°18.034 3°1.258 -999 23 3.8 102300 45
2012-02-17 07:56:45 51°18.048 3°1.29 0.1 309 3.8 102300 45
2012-02-17 07:56:49 51°18.057 3°1.311 0.1 21 3.8 102300 45
2012-02-17 07:56:54 51°18.068 3°1.338 0.1 307 3.8 102300 45
2012-02-17 07:56:59 51°18.079 3°1.365 -999 245 3.8 102310 45
2012-02-17 07:57:04 51°18.09 3°1.392 0.1 311 3.8 102310 45
2012-02-17 07:57:09 51°18.101 3°1.418 0.1 21 3.8 102310 45
2012-02-17 07:57:14 51°18.113 3°1.445 0.1 307 3.8 102310 45
2012-02-17 07:57:19 51°18.125 3°1.47 -999 26 3.8 102300 45
2012-02-17 07:57:24 51°18.138 3°1.495 0.1 312 3.8 102300 45
2012-02-17 07:57:29 51°18.15 3°1.52 0.1 21 3.8 102300 45
2012-02-17 07:57:34 51°18.163 3°1.545 0.1 307 3.8 102300 45
2012-02-17 07:57:39 51°18.175 3°1.571 0.1 21 3.8 102300 45
2012-02-17 07:57:44 51°18.189 3°1.595 0.1 308 3.8 102300 45
2012-02-17 07:57:49 51°18.201 3°1.619 0.1 22 3.8 102300 45
2012-02-17 07:57:53 51°18.211 3°1.639 0.1 306 3.8 102300 45
2012-02-17 07:57:59 51°18.226 3°1.67 0.1 20 3.8 102300 45
2012-02-17 07:58:04 51°18.239 3°1.695 0.1 303 3.8 102300 45
2012-02-17 07:58:09 51°18.25 3°1.721 0.1 20 3.8 102300 45
2012-02-17 07:58:13 51°18.26 3°1.741 0.1 306 3.8 102300 45
2012-02-17 07:58:19 51°18.275 3°1.773 0.1 20 3.8 102300 44
2012-02-17 07:58:24 51°18.286 3°1.8 0.1 306 3.8 102300 44
2012-02-17 07:58:29 51°18.298 3°1.827 0.1 26 3.8 102310 45
2012-02-17 07:58:33 51°18.307 3°1.847 0.1 283 3.8 102310 45
2012-02-17 07:58:39 51°18.321 3°1.878 0.1 27 3.8 102300 45
2012-02-17 07:58:44 51°18.333 3°1.904 0.2 307 3.8 102300 45
2012-02-17 07:58:49 51°18.346 3°1.93 0.2 26 3.8 102300 44
2012-02-17 07:58:53 51°18.355 3°1.951 0.2 307 3.8 102300 44
2012-02-17 07:58:59 51°18.37 3°1.981 0.1 26 3.8 102310 45
2012-02-17 07:59:04 51°18.381 3°2.008 0.6 309 3.8 102310 45
2012-02-17 07:59:09 51°18.394 3°2.032 0.8 25 3.8 102300 45
2012-02-17 07:59:14 51°18.406 3°2.059 0.3 308 3.8 102300 45
2012-02-17 07:59:19 51°18.418 3°2.085 0.4 25 3.8 102300 45
2012-02-17 07:59:24 51°18.429 3°2.112 0.2 308 3.8 102300 45
2012-02-17 07:59:29 51°18.441 3°2.139 0.1 328 3.8 102300 45
2012-02-17 07:59:34 51°18.451 3°2.165 0.1 327 3.8 102300 45
2012-02-17 07:59:39 51°18.462 3°2.191 0.4 335 3.8 102300 45
2012-02-17 07:59:44 51°18.472 3°2.218 0.1 302 3.8 102300 45
2012-02-17 07:59:50 51°18.486 3°2.253 0.1 336 3.8 102310 45
2012-02-17 07:59:54 51°18.494 3°2.274 0.1 327 3.8 102310 45
2012-02-17 07:59:59 51°18.505 3°2.301 0.1 329 3.8 102310 45
2012-02-17 08:00:04 51°18.516 3°2.328 0.1 312 3.8 102310 45
2012-02-17 08:00:09 51°18.527 3°2.354 0.2 320 3.8 102300 45
2012-02-17 08:00:14 51°18.538 3°2.38 0.1 311 3.8 102300 45
2012-02-17 08:00:19 51°18.549 3°2.407 0.1 324 3.8 102310 45
2012-02-17 08:00:24 51°18.562 3°2.432 0.9 309 3.8 102310 45
2012-02-17 08:00:29 51°18.573 3°2.458 0.2 316 3.8 102300 45
2012-02-17 08:00:34 51°18.585 3°2.484 0.4 287 3.8 102300 45
2012-02-17 08:00:38 51°18.594 3°2.505 0.2 316 3.8 102300 45
2012-02-17 08:00:44 51°18.608 3°2.535 0.1 308 3.8 102300 45
2012-02-17 08:00:49 51°18.62 3°2.562 0.1 27 3.8 102300 46
2012-02-17 08:00:54 51°18.632 3°2.588 0.2 304 3.8 102300 46
2012-02-17 08:00:59 51°18.643 3°2.614 0.5 316 3.8 102300 44
2012-02-17 08:01:04 51°18.655 3°2.641 0.3 311 3.8 102300 44
2012-02-17 08:01:09 51°18.667 3°2.666 0.5 19 3.8 102300 45
2012-02-17 08:01:14 51°18.678 3°2.692 0.2 302 3.8 102300 45
2012-02-17 08:01:19 51°18.69 3°2.716 0.3 24 3.8 102300 44
2012-02-17 08:01:24 51°18.702 3°2.742 0.2 302 3.8 102300 44
2012-02-17 08:01:29 51°18.715 3°2.767 0.1 19 3.8 102310 44
2012-02-17 08:01:34 51°18.728 3°2.791 0.8 307 3.8 102310 44
2012-02-17 08:01:39 51°18.74 3°2.817 0.2 27 3.8 102310 43
2012-02-17 08:01:44 51°18.752 3°2.841 0.4 310 3.8 102310 43
2012-02-17 08:01:49 51°18.764 3°2.867 0.1 19 3.8 102310 45
2012-02-17 08:01:54 51°18.776 3°2.892 0.1 307 3.8 102310 45
2012-02-17 08:01:59 51°18.788 3°2.918 0.1 26 3.8 102300 45
2012-02-17 08:02:04 51°18.798 3°2.944 0.1 311 3.8 102300 45
2012-02-17 08:02:09 51°18.81 3°2.97 0.1 26 3.8 102300 45
2012-02-17 08:02:14 51°18.82 3°2.996 0.1 306 3.8 102300 45
2012-02-17 08:02:19 51°18.831 3°3.022 -999 23 3.8 102310 45
2012-02-17 08:02:24 51°18.842 3°3.048 -999 307 3.8 102310 45
2012-02-17 08:02:29 51°18.852 3°3.075 -999 23 3.8 102300 45
2012-02-17 08:02:34 51°18.863 3°3.101 0.1 283 3.8 102300 45
2012-02-17 08:02:39 51°18.872 3°3.127 0.1 358 3.8 102310 45
2012-02-17 08:02:44 51°18.884 3°3.152 -999 307 3.8 102310 45
2012-02-17 08:02:49 51°18.894 3°3.178 -999 26 3.8 102300 45
2012-02-17 08:02:54 51°18.905 3°3.203 0.1 306 3.8 102300 45
2012-02-17 08:02:58 51°18.914 3°3.224 0.1 22 3.7 102300 45
2012-02-17 08:03:04 51°18.927 3°3.255 -999 324 3.7 102300 45
2012-02-17 08:03:09 51°18.938 3°3.281 -999 323 3.7 102300 45
2012-02-17 08:03:14 51°18.95 3°3.306 0.1 308 3.7 102300 45
2012-02-17 08:03:18 51°18.958 3°3.327 0.1 318 3.8 102300 45
2012-02-17 08:03:24 51°18.972 3°3.356 0.1 307 3.8 102300 45
2012-02-17 08:03:29 51°18.983 3°3.381 0.1 259 3.7 102300 45
2012-02-17 08:03:34 51°18.995 3°3.407 0.4 287 3.7 102300 45
2012-02-17 08:03:38 51°19.005 3°3.426 0.3 248 3.8 102310 44
2012-02-17 08:03:43 51°19.016 3°3.451 0.2 302 3.8 102310 44
2012-02-17 08:03:49 51°19.032 3°3.479 0.5 19 3.8 102300 45
2012-02-17 08:03:54 51°19.044 3°3.502 1.1 307 3.8 102300 45
2012-02-17 08:03:58 51°19.054 3°3.521 0.2 252 3.8 102310 45
2012-02-17 08:04:04 51°19.069 3°3.548 0.7 307 3.8 102310 45
2012-02-17 08:04:09 51°19.081 3°3.572 0.1 248 3.8 102300 44
2012-02-17 08:04:14 51°19.094 3°3.594 0.3 309 3.8 102300 44
2012-02-17 08:04:18 51°19.104 3°3.613 0.2 261 3.8 102300 45
2012-02-17 08:04:25 51°19.121 3°3.646 0.2 309 3.8 102300 45
2012-02-17 08:04:28 51°19.128 3°3.66 0.1 247 3.8 102300 44
2012-02-17 08:04:35 51°19.144 3°3.694 0.3 304 3.8 102300 44
2012-02-17 08:04:39 51°19.153 3°3.713 0.2 251 3.8 102300 45
2012-02-17 08:04:44 51°19.165 3°3.738 0.3 309 3.8 102300 45
2012-02-17 08:04:49 51°19.176 3°3.762 0.1 257 3.8 102300 45
2012-02-17 08:04:54 51°19.187 3°3.787 0.1 306 3.8 102300 45
2012-02-17 08:04:59 51°19.197 3°3.812 -999 257 3.8 102310 45
2012-02-17 08:05:04 51°19.208 3°3.838 -999 306 3.8 102310 45
2012-02-17 08:05:09 51°19.218 3°3.863 0.1 255 3.8 102300 45
2012-02-17 08:05:14 51°19.229 3°3.889 0.1 306 3.8 102300 45
2012-02-17 08:05:19 51°19.239 3°3.914 0.1 327 3.8 102300 45
2012-02-17 08:05:24 51°19.25 3°3.939 0.1 305 3.8 102300 45
2012-02-17 08:05:29 51°19.261 3°3.964 0.1 24 3.8 102300 45
2012-02-17 08:05:34 51°19.272 3°3.989 0.1 287 3.8 102300 45
2012-02-17 08:05:39 51°19.284 3°4.013 0.1 21 3.8 102300 45
2012-02-17 08:05:43 51°19.293 3°4.032 0.1 309 3.8 102300 45
2012-02-17 08:05:49 51°19.308 3°4.06 0.6 252 3.8 102310 45
2012-02-17 08:05:54 51°19.32 3°4.084 0.2 309 3.8 102310 45
2012-02-17 08:05:59 51°19.333 3°4.107 0.8 256 3.8 102300 45
2012-02-17 08:06:03 51°19.343 3°4.125 0.2 308 3.8 102300 45
2012-02-17 08:06:09 51°19.358 3°4.152 0.1 250 3.8 102300 44
2012-02-17 08:06:14 51°19.369 3°4.177 0.3 309 3.8 102300 44
2012-02-17 08:06:19 51°19.382 3°4.201 0.4 255 3.8 102300 45
2012-02-17 08:06:23 51°19.39 3°4.221 0.1 306 3.8 102300 45
2012-02-17 08:06:29 51°19.404 3°4.251 0.1 262 3.8 102310 45
2012-02-17 08:06:34 51°19.415 3°4.277 0.1 306 3.8 102310 45
2012-02-17 08:06:39 51°19.426 3°4.302 0.1 267 3.8 102290 45
2012-02-17 08:06:43 51°19.434 3°4.324 0.1 307 3.8 102290 45
2012-02-17 08:06:48 51°19.445 3°4.35 0.1 23 3.8 102300 44
2012-02-17 08:06:54 51°19.457 3°4.381 0.1 307 3.8 102300 44
2012-02-17 08:06:59 51°19.468 3°4.407 0.2 24 3.8 102300 45
2012-02-17 08:07:03 51°19.476 3°4.428 0.1 307 3.8 102300 45
2012-02-17 08:07:09 51°19.488 3°4.46 0.1 25 3.8 102310 46
2012-02-17 08:07:14 51°19.498 3°4.487 0.1 306 3.8 102310 46
2012-02-17 08:07:19 51°19.508 3°4.515 0.1 18 3.8 102290 45
2012-02-17 08:07:23 51°19.516 3°4.536 0.1 307 3.8 102290 45
2012-02-17 08:07:29 51°19.527 3°4.57 0.1 321 3.8 102310 45
2012-02-17 08:07:34 51°19.536 3°4.598 -999 282 3.8 102310 45
2012-02-17 08:07:39 51°19.545 3°4.626 -999 346 3.8 102300 45
2012-02-17 08:07:43 51°19.553 3°4.648 -999 1 3.8 102300 45
2012-02-17 08:07:48 51°19.562 3°4.676 -999 348 3.8 102300 45
2012-02-17 08:07:54 51°19.573 3°4.711 0.1 349 3.8 102300 45
2012-02-17 08:07:59 51°19.583 3°4.739 0.1 350 3.8 102300 45
2012-02-17 08:08:04 51°19.592 3°4.767 -999 345 3.8 102300 45
2012-02-17 08:08:08 51°19.601 3°4.788 -999 323 3.8 102300 45
2012-02-17 08:08:14 51°19.613 3°4.822 -999 303 3.8 102300 45
2012-02-17 08:08:19 51°19.623 3°4.849 0.1 21 3.8 102300 45
2012-02-17 08:08:23 51°19.631 3°4.871 0.1 306 3.8 102300 45
2012-02-17 08:08:29 51°19.644 3°4.904 0.1 23 3.8 102300 45
2012-02-17 08:08:34 51°19.655 3°4.931 -999 283 3.8 102300 45
2012-02-17 08:08:39 51°19.665 3°4.958 -999 253 3.8 102300 45
2012-02-17 08:08:43 51°19.673 3°4.98 -999 302 3.8 102300 45
2012-02-17 08:08:48 51°19.684 3°5.007 -999 249 3.8 102300 45
2012-02-17 08:08:54 51°19.696 3°5.04 0.1 307 3.8 102300 45
2012-02-17 08:08:59 51°19.706 3°5.068 0.1 23 3.8 102300 44
2012-02-17 08:09:03 51°19.715 3°5.09 -999 305 3.8 102300 44
2012-02-17 08:09:09 51°19.727 3°5.123 -999 23 3.8 102310 45
2012-02-17 08:09:14 51°19.737 3°5.151 0.1 311 3.8 102310 45
2012-02-17 08:09:19 51°19.748 3°5.177 0.1 253 3.8 102300 45
2012-02-17 08:09:23 51°19.756 3°5.199 0.1 311 3.8 102300 45
2012-02-17 08:09:28 51°19.767 3°5.226 0.1 262 3.8 102310 44
2012-02-17 08:09:33 51°19.776 3°5.254 0.1 77 3.8 102310 44
2012-02-17 08:09:39 51°19.788 3°5.286 -999 26 3.8 102300 45
2012-02-17 08:09:43 51°19.796 3°5.309 0.1 53 3.8 102300 45
2012-02-17 08:09:49 51°19.807 3°5.342 0.1 22 3.8 102310 45
2012-02-17 08:09:54 51°19.818 3°5.369 -999 53 3.8 102310 45
2012-02-17 08:09:59 51°19.828 3°5.396 -999 27 3.8 102300 45
2012-02-17 08:10:03 51°19.836 3°5.418 -999 54 3.8 102300 45
2012-02-17 08:10:08 51°19.847 3°5.444 0.1 20 3.8 102300 45
2012-02-17 08:10:14 51°19.86 3°5.476 0.1 311 3.8 102300 45
2012-02-17 08:10:19 51°19.871 3°5.502 0.1 315 3.8 102300 45
2012-02-17 08:10:23 51°19.881 3°5.522 0.8 303 3.8 102300 45
2012-02-17 08:10:29 51°19.893 3°5.554 0.2 21 3.8 102300 45
2012-02-17 08:10:34 51°19.906 3°5.579 0.8 309 3.8 102300 45
2012-02-17 08:10:39 51°19.917 3°5.605 0.2 24 3.8 102300 45
2012-02-17 08:10:43 51°19.927 3°5.625 0.5 307 3.8 102300 45
2012-02-17 08:10:49 51°19.94 3°5.656 0.2 260 3.8 102300 45
2012-02-17 08:10:54 51°19.952 3°5.681 0.2 308 3.8 102300 45
2012-02-17 08:10:59 51°19.964 3°5.707 0.2 248 3.8 102300 45
2012-02-17 08:11:03 51°19.972 3°5.727 0.1 310 3.8 102300 45
2012-02-17 08:11:08 51°19.983 3°5.753 0.1 26 3.8 102300 46
2012-02-17 08:11:14 51°19.996 3°5.785 0.1 53 3.8 102300 46
2012-02-17 08:11:19 51°20.007 3°5.81 0.1 23 3.8 102310 45
2012-02-17 08:11:23 51°20.015 3°5.832 -999 54 3.8 102310 45
2012-02-17 08:11:28 51°20.025 3°5.859 -999 23 3.8 102300 45
2012-02-17 08:11:34 51°20.037 3°5.891 0.1 287 3.8 102300 45
2012-02-17 08:11:39 51°20.046 3°5.918 0.1 22 3.8 102300 44
2012-02-17 08:11:43 51°20.054 3°5.939 0.1 56 3.8 102300 44
2012-02-17 08:11:49 51°20.066 3°5.972 0.1 19 3.8 102290 45
2012-02-17 08:11:54 51°20.076 3°5.999 0.1 53 3.8 102290 45
2012-02-17 08:11:59 51°20.085 3°6.026 0.1 22 3.8 102300 45
2012-02-17 08:12:03 51°20.093 3°6.048 -999 58 3.8 102300 45
2012-02-17 08:12:08 51°20.102 3°6.075 0.4 22 3.8 102300 44
2012-02-17 08:12:14 51°20.114 3°6.108 0.3 57 3.8 102300 44
2012-02-17 08:12:19 51°20.124 3°6.135 0.2 270 3.8 102300 45
2012-02-17 08:12:23 51°20.132 3°6.156 0.4 56 3.8 102300 45
2012-02-17 08:12:29 51°20.145 3°6.187 1.5 23 3.8 102300 45
2012-02-17 08:12:34 51°20.155 3°6.213 1.6 51 3.8 102300 45
2012-02-17 08:12:39 51°20.166 3°6.239 0.9 22 3.8 102310 47
2012-02-17 08:12:43 51°20.174 3°6.26 0.3 58 3.8 102310 47
2012-02-17 08:12:49 51°20.186 3°6.292 0.2 26 3.8 102300 43
2012-02-17 08:12:54 51°20.196 3°6.319 0.1 55 3.8 102300 43
2012-02-17 08:12:59 51°20.206 3°6.345 0.1 19 3.8 102300 45
2012-02-17 08:13:03 51°20.215 3°6.366 0.2 51 3.8 102300 45
2012-02-17 08:13:08 51°20.225 3°6.392 0.1 26 3.9 102300 45
2012-02-17 08:13:14 51°20.237 3°6.423 0.1 53 3.9 102300 45
2012-02-17 08:13:19 51°20.248 3°6.449 0.4 270 3.9 102290 45
2012-02-17 08:13:23 51°20.258 3°6.469 0.2 56 3.9 102290 45
2012-02-17 08:13:28 51°20.269 3°6.494 0.4 21 3.9 102300 45
2012-02-17 08:13:34 51°20.283 3°6.523 0.7 81 3.9 102300 45
2012-02-17 08:13:39 51°20.294 3°6.548 0.4 24 3.9 102300 44
2012-02-17 08:13:43 51°20.304 3°6.567 0.9 311 3.9 102300 44
2012-02-17 08:13:48 51°20.316 3°6.592 0.3 29 3.9 102300 45
2012-02-17 08:13:54 51°20.33 3°6.622 0.4 309 3.9 102300 45
2012-02-17 08:13:59 51°20.341 3°6.648 0.2 267 3.9 102300 46
2012-02-17 08:14:03 51°20.35 3°6.668 0.1 306 3.9 102300 46
2012-02-17 08:14:08 51°20.361 3°6.694 -999 267 3.9 102300 45
2012-02-17 08:14:14 51°20.373 3°6.726 -999 307 3.9 102300 45
2012-02-17 08:14:19 51°20.384 3°6.753 0.1 25 3.9 102290 44
2012-02-17 08:14:23 51°20.391 3°6.774 0.1 307 3.9 102290 44
2012-02-17 08:14:28 51°20.402 3°6.801 0.2 22 3.9 102300 45
2012-02-17 08:14:34 51°20.414 3°6.832 0.1 311 3.9 102300 45
2012-02-17 08:14:39 51°20.424 3°6.859 0.3 259 3.9 102300 45
2012-02-17 08:14:43 51°20.432 3°6.88 0.1 302 3.9 102300 45
2012-02-17 08:14:49 51°20.444 3°6.914 0.1 260 3.9 102300 44
2012-02-17 08:14:54 51°20.454 3°6.941 0.1 311 3.9 102300 44
2012-02-17 08:14:59 51°20.464 3°6.968 0.1 260 3.9 102300 45
2012-02-17 08:15:03 51°20.472 3°6.99 0.1 307 3.9 102300 45
2012-02-17 08:15:08 51°20.482 3°7.017 -999 245 3.9 102300 45
2012-02-17 08:15:14 51°20.494 3°7.051 0.1 306 3.9 102300 45
2012-02-17 08:15:19 51°20.505 3°7.077 0.3 249 3.9 102300 45
2012-02-17 08:15:23 51°20.512 3°7.099 0.1 311 3.9 102300 45
2012-02-17 08:15:28 51°20.523 3°7.125 0.1 26 3.9 102300 47
2012-02-17 08:15:34 51°20.536 3°7.158 0.1 283 3.9 102300 47
2012-02-17 08:15:39 51°20.547 3°7.184 0.4 24 3.9 102300 45
2012-02-17 08:15:43 51°20.556 3°7.206 0.2 308 3.9 102300 45
2012-02-17 08:15:49 51°20.568 3°7.238 0.7 25 3.9 102300 45
2012-02-17 08:15:54 51°20.579 3°7.265 0.2 306 3.9 102300 45
2012-02-17 08:15:59 51°20.589 3°7.293 0.2 336 3.9 102300 43
2012-02-17 08:16:03 51°20.596 3°7.315 0.1 303 3.9 102300 43
2012-02-17 08:16:08 51°20.606 3°7.343 0.1 19 3.9 102300 45
2012-02-17 08:16:14 51°20.617 3°7.377 0.1 302 3.9 102300 45
2012-02-17 08:16:19 51°20.625 3°7.405 0.1 24 3.9 102300 45
2012-02-17 08:16:23 51°20.631 3°7.428 -999 306 3.9 102300 45
2012-02-17 08:16:28 51°20.641 3°7.456 -999 23 3.9 102300 45
2012-02-17 08:16:34 51°20.652 3°7.489 0.1 311 3.9 102300 45
2012-02-17 08:16:39 51°20.661 3°7.518 0.1 21 3.9 102300 45
2012-02-17 08:16:43 51°20.668 3°7.541 0.1 325 3.9 102300 45
2012-02-17 08:16:49 51°20.679 3°7.575 -999 5 3.9 102290 45
2012-02-17 08:16:54 51°20.687 3°7.604 0.2 302 3.9 102290 45
2012-02-17 08:16:59 51°20.696 3°7.632 0.1 350 3.8 102290 44
2012-02-17 08:17:03 51°20.702 3°7.656 0.1 355 3.8 102290 44
2012-02-17 08:17:08 51°20.711 3°7.684 0.1 355 3.8 102300 45
2012-02-17 08:17:14 51°20.721 3°7.719 0.1 355 3.8 102300 45
2012-02-17 08:17:19 51°20.731 3°7.748 0.1 353 3.8 102300 45
2012-02-17 08:17:23 51°20.739 3°7.77 0.1 354 3.8 102300 45
2012-02-17 08:17:29 51°20.75 3°7.805 -999 353 3.8 102300 44
2012-02-17 08:17:34 51°20.759 3°7.833 0.2 83 3.8 102300 44
2012-02-17 08:17:39 51°20.769 3°7.861 0.1 19 3.8 102300 45
2012-02-17 08:17:43 51°20.776 3°7.883 0.2 307 3.8 102300 45
2012-02-17 08:17:49 51°20.787 3°7.918 0.1 249 3.8 102290 46
2012-02-17 08:17:54 51°20.796 3°7.946 0.1 309 3.8 102290 46
2012-02-17 08:17:59 51°20.806 3°7.974 0.1 260 3.8 102300 44
2012-02-17 08:18:03 51°20.812 3°7.997 0.1 309 3.8 102300 44
2012-02-17 08:18:08 51°20.822 3°8.025 0.1 21 3.9 102310 45
2012-02-17 08:18:14 51°20.833 3°8.06 0.1 307 3.9 102310 45
2012-02-17 08:18:19 51°20.843 3°8.087 0.1 245 3.9 102290 45
2012-02-17 08:18:23 51°20.851 3°8.11 0.1 311 3.9 102290 45
2012-02-17 08:18:28 51°20.86 3°8.138 0.1 252 3.9 102300 45
2012-02-17 08:18:34 51°20.872 3°8.171 0.1 53 3.9 102300 45
2012-02-17 08:18:39 51°20.882 3°8.199 0.1 25 3.9 102290 45
2012-02-17 08:18:43 51°20.891 3°8.221 0.2 309 3.9 102290 45
2012-02-17 08:18:49 51°20.903 3°8.253 0.1 25 3.9 102300 46
2012-02-17 08:18:54 51°20.913 3°8.281 0.1 51 3.9 102300 46
2012-02-17 08:18:59 51°20.923 3°8.309 0.1 26 3.9 102290 45
2012-02-17 08:19:03 51°20.931 3°8.33 0.1 54 3.9 102290 45
2012-02-17 08:19:08 51°20.94 3°8.359 0.1 18 3.9 102300 45
2012-02-17 08:19:14 51°20.952 3°8.392 0.1 56 3.9 102300 45
2012-02-17 08:19:19 51°20.96 3°8.42 0.1 24 3.9 102290 45
2012-02-17 08:19:23 51°20.968 3°8.441 0.1 53 3.9 102290 45
2012-02-17 08:19:29 51°20.977 3°8.473 0.1 22 3.9 102290 45
2012-02-17 08:19:34 51°20.986 3°8.498 0.2 76 3.9 102290 45
2012-02-17 08:19:39 51°20.994 3°8.522 0.3 20 3.9 102290 44
2012-02-17 08:19:43 51°20.999 3°8.54 0.1 54 3.9 102290 44
2012-02-17 08:19:49 51°21.007 3°8.565 1.4 28 3.9 102290 45
2012-02-17 08:19:54 51°21.013 3°8.585 2.1 53 3.9 102290 45
2012-02-17 08:19:59 51°21.019 3°8.603 2.4 25 3.9 102300 45
2012-02-17 08:20:03 51°21.023 3°8.617 2.1 58 3.9 102300 45
2012-02-17 08:20:08 51°21.029 3°8.634 2.2 25 3.9 102290 46
2012-02-17 08:20:14 51°21.035 3°8.651 2 52 3.9 102290 46
2012-02-17 08:20:19 51°21.041 3°8.666 0.9 21 3.9 102280 44
2012-02-17 08:20:23 51°21.046 3°8.677 2.7 51 3.9 102280 44
2012-02-17 08:20:28 51°21.052 3°8.688 3.6 25 3.9 102290 46
2012-02-17 08:20:34 51°21.059 3°8.701 4.5 58 3.9 102290 46
2012-02-17 08:20:39 51°21.065 3°8.71 4.6 19 3.9 102290 46
2012-02-17 08:20:43 51°21.07 3°8.717 4.5 50 3.9 102290 46
2012-02-17 08:20:49 51°21.077 3°8.726 5 25 3.9 102280 44
2012-02-17 08:20:54 51°21.083 3°8.733 4.8 53 3.9 102280 44
2012-02-17 08:20:59 51°21.089 3°8.739 5 270 3.9 102290 44
2012-02-17 08:21:03 51°21.093 3°8.744 4.7 305 3.9 102290 44
2012-02-17 08:21:08 51°21.099 3°8.748 4.9 269 3.9 102290 44
2012-02-17 08:21:14 51°21.105 3°8.754 4.1 302 3.9 102290 44
2012-02-17 08:21:19 51°21.111 3°8.758 4 265 3.9 102290 44
2012-02-17 08:21:23 51°21.115 3°8.761 3.6 311 3.9 102290 44
2012-02-17 08:21:28 51°21.12 3°8.765 4.1 265 3.8 102280 44
2012-02-17 08:21:34 51°21.127 3°8.77 4.7 286 3.8 102280 44
2012-02-17 08:21:39 51°21.132 3°8.774 4.3 265 3.8 102280 44
2012-02-17 08:21:43 51°21.136 3°8.776 3.7 306 3.8 102280 44
2012-02-17 08:21:49 51°21.142 3°8.781 4.3 265 3.8 102280 46
2012-02-17 08:21:54 51°21.147 3°8.784 4.6 309 3.8 102280 46
2012-02-17 08:21:59 51°21.152 3°8.787 4.9 264 3.8 102290 43
2012-02-17 08:22:03 51°21.156 3°8.79 3.5 305 3.8 102290 43
2012-02-17 08:22:08 51°21.16 3°8.793 6 262 3.8 102270 44
2012-02-17 08:22:14 51°21.166 3°8.796 4.6 306 3.8 102270 44
2012-02-17 08:22:19 51°21.171 3°8.798 6.2 261 3.8 102280 44
2012-02-17 08:22:23 51°21.174 3°8.8 5.7 302 3.8 102280 44
2012-02-17 08:22:28 51°21.178 3°8.803 6.3 258 3.8 102280 44
2012-02-17 08:22:34 51°21.183 3°8.805 6.8 303 3.8 102280 44
2012-02-17 08:22:39 51°21.187 3°8.807 7.3 254 3.7 102280 45
2012-02-17 08:22:43 51°21.19 3°8.809 6.7 308 3.7 102280 45
2012-02-17 08:22:49 51°21.194 3°8.811 7.1 256 3.7 102280 42
2012-02-17 08:22:54 51°21.198 3°8.812 6.4 304 3.7 102280 42
2012-02-17 08:22:59 51°21.202 3°8.814 6.7 252 3.7 102290 46
2012-02-17 08:23:03 51°21.205 3°8.815 7.4 305 3.7 102290 46
2012-02-17 08:23:08 51°21.208 3°8.817 6.3 252 3.7 102280 46
2012-02-17 08:23:14 51°21.213 3°8.818 6.8 309 3.7 102280 46
2012-02-17 08:23:19 51°21.216 3°8.819 6.5 247 3.7 102280 46
2012-02-17 08:23:23 51°21.218 3°8.819 7.2 304 3.7 102280 46
2012-02-17 08:23:28 51°21.222 3°8.82 6.1 244 3.7 102290 44
2012-02-17 08:23:34 51°21.225 3°8.821 6.7 282 3.7 102290 44
2012-02-17 08:23:39 51°21.228 3°8.822 6 24 3.7 102280 46
2012-02-17 08:23:43 51°21.231 3°8.822 6.1 303 3.7 102280 46
2012-02-17 08:23:49 51°21.234 3°8.823 6.4 21 3.7 102270 44
2012-02-17 08:23:54 51°21.237 3°8.823 6.1 307 3.7 102270 44
2012-02-17 08:23:59 51°21.239 3°8.824 7.5 22 3.7 102280 46
2012-02-17 08:24:03 51°21.241 3°8.824 6.7 310 3.7 102280 46
2012-02-17 08:24:08 51°21.244 3°8.825 6.3 24 3.7 102280 45
2012-02-17 08:24:14 51°21.247 3°8.825 7.7 310 3.7 102280 45
2012-02-17 08:24:19 51°21.249 3°8.824 6.3 25 3.7 102280 44
2012-02-17 08:24:23 51°21.252 3°8.824 6.7 310 3.7 102280 44
2012-02-17 08:24:28 51°21.254 3°8.823 7.4 25 3.7 102280 45
2012-02-17 08:24:34 51°21.256 3°8.82 7.1 306 3.7 102280 45
2012-02-17 08:24:39 51°21.258 3°8.816 5.1 317 3.7 102290 44
2012-02-17 08:24:43 51°21.26 3°8.812 6.7 309 3.7 102290 44
2012-02-17 08:24:49 51°21.262 3°8.803 7.2 319 3.7 102290 45
2012-02-17 08:24:54 51°21.264 3°8.794 7.8 305 3.7 102290 45
2012-02-17 08:24:59 51°21.266 3°8.783 8.3 317 3.7 102290 46
2012-02-17 08:25:03 51°21.268 3°8.774 10.3 309 3.7 102290 46
2012-02-17 08:25:08 51°21.271 3°8.761 9.8 317 3.7 102290 43
2012-02-17 08:25:14 51°21.275 3°8.743 9.8 305 3.7 102290 43
2012-02-17 08:25:19 51°21.28 3°8.728 8.5 318 3.7 102280 46
2012-02-17 08:25:23 51°21.283 3°8.715 9.6 309 3.7 102280 46
2012-02-17 08:25:28 51°21.288 3°8.698 10.3 316 3.7 102290 43
2012-02-17 08:25:34 51°21.295 3°8.677 9 281 3.7 102290 43
2012-02-17 08:25:39 51°21.301 3°8.659 8.9 316 3.7 102290 45